Regional Weather Roundup
Issued by NWS

Home | Current Version | Previous Version | Graphics & Text | Print | Product List | Glossary On
Versions: 1 2 3 4 5 6 7 8 9 10 11 12 13 14 15 16 17 18 19 20 21 22 23 24 25 26 27 28 29 30 31 32 33 34 35 36 37 38 39 40 41 42 43 44 45 46 47 48 49 50
000
ASUS43 KTOP 030808
RWRKS

WEATHER ROUNDUP FOR KANSAS
NATIONAL WEATHER SERVICE GOODLAND KS
300 AM CDT MON AUG 03 2015

NOTE:  "FAIR" INDICATES FEW OR NO CLOUDS BELOW 12,000 FEET WITH NO
SIGNIFICANT WEATHER AND/OR OBSTRUCTIONS TO VISIBILITY.

KSZ001>006-013>018-027>032-041>047-030900-
NORTHWEST KANSAS

CITY           SKY/WX    TMP DP  RH WIND       PRES   REMARKS
GOODLAND       PTCLDY    71  57  61 SW9       29.99F
HAYS           PTCLDY    73  63  68 CALM      29.92S
HILL CITY      CLEAR     67  62  84 SW3       29.93S
RUSSELL        CLEAR     74  68  81 S9        29.89F
$$

KSZ061>065-074>080-084>089-030900-
SOUTHWEST KANSAS

CITY           SKY/WX    TMP DP  RH WIND       PRES   REMARKS
DODGE CITY     PTCLDY    71  66  84 S10       29.94F
ELKHART          N/A     71  61  71 S10         N/A
GARDEN CITY    PTCLDY    69  66  90 S8        29.94F
GREAT BEND     PTCLDY    72  64  78 S6        29.91F
LIBERAL        MOCLDY    73  63  68 S8        29.95F
PRATT          PTCLDY    72  64  78 CALM      29.93F
$$

KSZ066>073-081>083-090>101-030900-
SOUTHEAST KANSAS

CITY           SKY/WX    TMP DP  RH WIND       PRES   REMARKS
CHANUTE        PTCLDY    70  65  84 S6        29.91S
COFFEYVILLE    PTCLDY    70  67  90 S3        29.90F
HUTCHINSON     PTCLDY    73  67  81 CALM      29.91F
MEDICINE LODGE   N/A     74  69  85 SE6       29.91F
NEWTON         MOCLDY    73  63  68 S8        29.93F
PARSONS        PTCLDY    68  66  93 CALM      29.92S
WICHITA INTL   MOCLDY    73  66  78 S5        29.90F
WICHITA JABRA  PTCLDY    73  66  78 S7        29.90F
WICHITA MCCONL PTCLDY    73  66  77 SE6       29.91F
WINFIELD       CLEAR     73  67  81 SE5       29.91F
$$

KSZ007>012-019>026-033>040-048>060-102>105-030900-
NORTHEAST KANSAS

CITY           SKY/WX    TMP DP  RH WIND       PRES   REMARKS
CONCORDIA      PTCLDY    75  69  81 SW9       29.89R
EMPORIA        PTCLDY    71  66  84 S8        29.91S
LAWRENCE       PTCLDY    72  68  87 S3        29.89F
MANHATTAN      CLEAR     73  69  87 SW3       29.88S
MARYSVILLE     CLEAR     73  70  88 SW6       29.86F
OLATHE IND     PTCLDY    73  65  75 S6        29.91F
OLATHE EXE     PTCLDY    74  65  73 CALM      29.91S
SALINA         CLEAR     76  69  79 S7        29.89S
TOPEKA BILLARD CLEAR     75  69  81 S5        29.89F
TOPEKA FORBES  CLEAR     74  68  81 S5        29.90S
$$


USA.gov is the U.S. government's official web portal to all federal, state and local government web resources and services.